Regional Weather Roundup
Issued by NWS

Home | Current Version | Previous Version | Graphics & Text | Print | Product List | Glossary On
Versions: 1 2 3 4 5 6 7 8 9 10 11 12 13 14 15 16 17 18 19 20 21 22 23 24 25 26 27 28 29 30 31 32 33 34 35 36 37 38 39 40 41 42 43 44 45 46 47 48 49 50
000
ASUS43 KTOP 231259
RWRKS

WEATHER ROUNDUP FOR KANSAS
NATIONAL WEATHER SERVICE GOODLAND KS
800 AM CDT SUN APR 23 2017

NOTE:  "FAIR" INDICATES FEW OR NO CLOUDS BELOW 12,000 FEET WITH NO
SIGNIFICANT WEATHER AND/OR OBSTRUCTIONS TO VISIBILITY.

KSZ001>006-013>018-027>032-041>047-231400-
NORTHWEST KANSAS

CITY           SKY/WX    TMP DP  RH WIND       PRES   REMARKS
GOODLAND       SUNNY     40  31  70 S17       30.11F WCI  31
HAYS           SUNNY     37  32  82 CALM      30.20R
HILL CITY      SUNNY     39  33  79 CALM      30.18S
RUSSELL        SUNNY     39  33  79 SW5       30.18R
$$

KSZ061>065-074>080-084>089-231400-
SOUTHWEST KANSAS

CITY           SKY/WX    TMP DP  RH WIND       PRES   REMARKS
DODGE CITY     SUNNY     39  33  79 SW5       30.21R
ELKHART          N/A     41  29  62 S10         N/A
GARDEN CITY    SUNNY     35  31  85 SW6       30.19S
GREAT BEND     SUNNY     39  35  86 CALM      30.20S
LIBERAL        SUNNY     37  28  70 SW3       30.22R
$$

KSZ066>073-081>083-090>101-231400-
SOUTHEAST KANSAS

CITY           SKY/WX    TMP DP  RH WIND       PRES   REMARKS
CHANUTE        SUNNY     46  37  71 N7        30.17R
COFFEYVILLE    SUNNY     45  40  82 NW5       30.16S
HUTCHINSON     SUNNY     40  37  89 NW6       30.20R
MEDICINE LODGE   N/A     38  35  89 N3        30.21R
NEWTON         SUNNY     44  38  79 N5        30.20R
PARSONS        SUNNY     46  39  76 N3        30.17S
WICHITA INTL   SUNNY     44  38  79 NW5       30.19S
WICHITA JABRA  SUNNY     44  38  79 NW5       30.18S
WINFIELD       SUNNY     42  39  89 CALM      30.20R
$$

KSZ007>012-019>026-033>040-048>060-102>105-231400-
NORTHEAST KANSAS

CITY           SKY/WX    TMP DP  RH WIND       PRES   REMARKS
CONCORDIA      SUNNY     43  38  82 CALM      30.20R
EMPORIA        SUNNY     44  37  76 NW5       30.19R
LAWRENCE       SUNNY     42  39  89 NW3       30.19R
MANHATTAN      SUNNY     39  36  89 CALM      30.21R
OLATHE IND     SUNNY     46  37  71 NW6       30.19R
OLATHE EXE     SUNNY     48  34  58 N6        30.18R
SALINA         SUNNY     41  37  86 CALM      30.20R
TOPEKA BILLARD SUNNY     43  40  89 CALM      30.20R
TOPEKA FORBES  SUNNY     45  38  76 N5        30.19R
$$




USA.gov is the U.S. government's official web portal to all federal, state and local government web resources and services.